Vertical_Velocity
-2 0 -1 -2 -5 -2 -4 10 4 3 -1 -7 -4 -7 8 -0 4 -6 2 6 -10 1 -1 1 2 1 1 1 0 0 -1 -2 0 -1 -0 2 1 1 0 -1 -1 -0 -1 -2 0 0 -0 -0 -1
-2 -4 0 -2 -3 3 11 -2 7 -1 -8 -0 -0 2 7 -8 1 2 2 0 -3 1 -1 2 1 1 0 -1 1 2 5 0 1 -1 1 0 0 1 -0 -0 0 -0 -0 -2 -1 -0 -0 -1 -0
-1 -2 -2 -7 -1 6 7 7 2 -4 -6 -1 1 -1 8 -9 3 5 -3 -0 3 3 -2 -0 -0 -0 1 1 -0 -0 -1 3 2 1 -1 -1 -1 -0 1 1 -0 0 -1 -1 -1 -1 -1 -0 0
-0 1 0 -0 -0 5 -5 -4 -7 2 -4 -1 -1 -1 1 0 3 0 1 -1 11 0 -5 -1 0 4 -1 1 2 -1 1 -1 0 -1 -1 -1 -1 -2 -1 1 -0 -0 1 -0 -0 1 0 -1 -0
-2 -0 -0 -4 3 15 -5 -10 -3 -1 1 2 -4 5 -2 -2 1 7 1 -1 -2 1 5 1 2 2 2 4 1 4 1 -0 1 -1 -1 1 -0 -0 -0 2 0 1 1 1 -1 -0 -0 0 -1
-1 -0 0 11 1 6 -2 -6 -2 -2 6 -6 -5 3 -4 1 -1 2 2 2 6 0 7 4 2 1 3 0 2 2 1 -2 1 -1 -0 2 0 1 0 0 0 2 0 2 1 -1 0 -1 0
2 -0 -5 -5 -3 4 -5 -0 -1 -7 7 6 -7 13 -8 2 1 3 -0 1 -1 1 1 1 -1 1 1 2 3 1 2 -1 2 0 0 3 1 2 -3 -1 -1 -1 1 1 -0 0 -0 1 0
-0 -1 -4 5 -3 2 -5 -2 2 -2 -3 0 2 9 -8 4 1 -2 -0 1 2 -2 0 1 7 0 -3 1 1 1 1 -3 3 3 -1 -0 3 7 3 -0 -1 -2 -0 0 1 1 -2 1 1
2 1 -3 14 -1 3 -9 2 -8 -0 1 5 -3 -1 -1 -3 -1 -0 -2 0 -2 2 1 -3 4 -7 -1 9 -1 -1 1 4 8 -1 -20 7 -0 41 9 5 5 -1 -0 -1 1 0 0 1 -0
-1 -1 6 4 2 -3 1 -4 1 -3 -2 -2 1 -1 -2 2 0 1 0 -0 1 -2 2 1 2 -5 -2 1 0 1 2 -15 10 1 -4 13 -27 -33 20 -27 -15 1 -0 0 -0 -2 0 -0 -1
-3 0 -3 1 3 2 0 2 -2 -0 0 5 1 -1 -4 1 0 1 0 -2 2 1 -0 0 -1 -3 1 -0 1 -0 0 -3 1 -1 0 1 6 -2 2 -7 -6 -1 2 2 1 0 -1 0 -2
-2 -2 -2 0 -2 -1 0 1 0 0 2 -3 1 -8 -3 -1 3 -2 -1 1 -2 2 2 0 -0 -0 -0 -1 -2 2 0 -1 -0 -1 -1 -2 1 -1 1 -3 4 1 2 -0 -0 0 -0 1 0
-4 0 -2 -1 -2 -1 -0 2 -2 -1 3 -3 2 -5 2 -7 -1 3 2 1 -0 2 1 1 0 -0 1 1 -1 1 3 0 -1 -0 1 -1 1 4 -0 -1 -2 3 1 -0 1 -1 2 -0 1
-2 -4 -1 -5 1 -3 -1 0 -3 -2 2 1 0 2 -2 4 -11 -2 4 -1 1 1 2 0 -3 0 0 1 1 -0 -0 -1 0 -0 1 2 3 -0 3 2 0 -1 -0 1 -1 2 -1 3 0
1 -2 -3 -2 -0 -4 1 -3 -5 -4 2 3 1 -3 -3 -7 1 -4 -5 0 -1 0 3 0 -2 -1 -2 -0 0 -2 0 0 1 -0 -1 -1 2 1 -1 1 -9 1 1 1 -0 -0 1 -0 1
-2 -3 -3 -3 -2 -3 2 -7 -9 -2 3 0 5 1 -1 -2 -5 3 -3 -2 1 -1 2 1 0 -0 0 -0 0 -2 -2 -0 0 2 2 -2 -3 -3 -3 0 5 -1 0 1 -0 -1 1 1 -2
-0 -3 0 12 4 -2 4 1 -2 1 -1 2 4 1 0 -4 -2 -8 2 -3 -5 0 3 3 1 1 0 0 1 1 -0 -0 -1 -0 1 2 3 5 1 1 -2 0 1 1 1 -1 1 -0 -2
1 1 3 8 -5 -2 1 -9 9 -5 -1 1 -1 -0 4 -1 0 -2 -6 2 1 -9 1 4 4 2 2 2 2 0 0 1 1 0 0 -2 -3 -1 -2 -2 -1 0 -0 -1 0 2 -1 0 -2
1 0 -0 -1 7 -3 -1 -3 -5 4 -3 -2 1 2 1 3 3 4 -3 -2 2 6 -5 -2 3 0 2 -0 -0 1 3 0 -0 -1 -1 -1 -2 -0 -3 -1 -1 -2 -1 -2 -4 -1 2 0 -1
1 0 -4 -6 9 -4 4 -7 -6 -3 -4 -4 2 2 -1 -3 0 1 5 -3 -6 3 1 3 -3 0 1 2 -0 0 -1 -0 -0 -1 -2 -1 0 0 -2 1 -1 -1 -1 -2 -2 -2 -4 -0 0
0 1 -0 5 1 -3 1 -24 -4 1 12 2 -2 3 3 -3 -1 4 2 4 1 -3 1 -3 3 -2 0 1 2 1 -1 1 -2 -2 -2 -1 -2 -2 -1 -2 -2 -2 -2 -1 -2 -1 -2 -2 1
-3 -2 -0 0 2 -3 -0 -9 -14 -8 -5 3 2 1 7 2 -3 4 1 3 5 2 -1 1 0 2 -1 -3 -0 1 1 2 0 1 -1 1 -2 -1 -1 -2 -3 -2 -1 -2 -1 0 -0 -2 -0
-0 1 2 0 -0 6 -12 6 -15 -0 1 2 1 0 4 2 -6 2 7 1 3 6 4 0 3 5 3 0 -2 -2 -1 1 0 1 -1 0 -4 -0 -1 -3 -3 0 -2 -2 -2 0 1 -1 -2
-3 -0 -3 -1 1 2 -7 6 -3 4 2 4 1 6 6 7 1 -0 4 3 -4 4 7 3 -0 -0 1 1 1 -1 -3 -2 -3 -2 -0 -1 -4 -0 -4 -1 -1 -2 -1 -2 -1 -1 -0 0 0
-1 -0 -2 -2 -0 -8 -1 6 -16 6 -2 4 7 7 1 4 1 -3 -1 -3 6 1 2 3 2 -2 0 2 0 -1 -2 -2 -4 -3 -1 -3 -3 -2 -5 0 -3 -1 -1 -3 -1 -0 -0 -0 -1
-5 -1 -2 -2 -0 -2 -4 -4 -8 -0 -3 -4 1 2 3 1 5 0 -5 -0 9 2 2 2 3 2 0 -0 2 0 -2 -0 -0 -4 -4 -2 -2 -2 -1 -2 -2 -1 -2 -2 -3 0 -1 -1 -1
4 -4 0 3 -5 6 -6 -5 9 -3 -9 -3 -1 -0 -0 8 8 -7 -2 2 2 6 2 4 5 3 3 -4 -3 -0 -3 -4 -4 -3 -2 -2 -1 -1 -2 -3 -2 -2 -2 -1 -1 0 -2 -0 -2
6 -2 -1 1 -1 -0 -2 5 8 -2 2 -2 -5 -3 -1 -2 1 2 -1 1 3 6 5 3 0 2 0 1 -3 -3 -1 -1 0 -0 -2 -2 -3 -1 -2 -2 -2 -2 -2 -2 -1 -1 -1 -0 -0
1 -0 -0 1 3 -2 -1 0 -1 5 -0 2 -3 -1 1 1 1 4 1 5 4 5 3 2 -1 2 -1 1 0 -1 -2 -3 -4 -2 -3 -3 -1 -2 -2 -1 -2 -2 -2 -2 -1 -2 -1 -1 -1
2 -0 4 2 -4 -1 2 -17 -2 -2 4 0 0 -3 -1 1 1 1 3 3 4 4 5 1 1 3 0 1 -1 -1 -2 -2 -4 -3 -3 -2 -1 -2 -2 -0 -0 -1 -1 -1 -1 -0 1 -2 -2
Height
3135 3135 3134 3134 3138 3135 3133 3136 3134 3134 3134 3132 3135 3135 3137 3133 3134 3138 3135 3136 3134 3137 3139 3140 3142 3144 3145 3147 3148 3149 3150 3151 3152 3154 3154 3155 3156 3156 3156 3157 3157 3158 3159 3160 3160 3160 3159 3159 3158
3134 3134 3134 3133 3136 3135 3135 3134 3134 3133 3132 3133 3132 3133 3134 3132 3134 3133 3135 3135 3134 3134 3137 3139 3141 3143 3145 3146 3147 3149 3150 3151 3153 3154 3154 3155 3156 3156 3156 3156 3157 3158 3159 3160 3160 3161 3160 3160 3160
3133 3133 3134 3133 3135 3135 3134 3133 3131 3130 3130 3131 3132 3130 3130 3129 3132 3132 3135 3135 3134 3134 3135 3138 3140 3142 3143 3145 3147 3147 3149 3150 3151 3152 3153 3154 3155 3156 3156 3156 3157 3158 3159 3160 3160 3161 3161 3161 3161
3132 3133 3134 3134 3134 3134 3133 3132 3130 3131 3128 3129 3130 3128 3129 3129 3130 3131 3132 3133 3133 3134 3135 3137 3139 3140 3142 3143 3145 3147 3148 3150 3150 3151 3152 3154 3155 3155 3156 3156 3157 3157 3158 3159 3159 3160 3160 3160 3161
3131 3132 3131 3132 3132 3132 3131 3129 3129 3128 3129 3128 3128 3127 3127 3128 3128 3130 3130 3131 3131 3132 3134 3136 3138 3139 3141 3143 3144 3145 3147 3148 3150 3151 3152 3153 3154 3154 3155 3156 3156 3157 3158 3158 3159 3160 3160 3160 3160
3130 3131 3131 3132 3131 3130 3128 3127 3126 3126 3127 3127 3128 3126 3126 3126 3126 3127 3128 3130 3131 3132 3134 3134 3136 3138 3139 3141 3142 3144 3145 3147 3148 3149 3150 3152 3153 3154 3155 3155 3155 3156 3157 3157 3158 3158 3159 3160 3160
3129 3130 3129 3129 3129 3128 3126 3126 3124 3124 3126 3125 3125 3125 3124 3126 3125 3125 3126 3128 3129 3131 3131 3132 3134 3136 3138 3139 3140 3142 3143 3145 3147 3148 3149 3151 3151 3152 3153 3154 3155 3155 3156 3157 3157 3157 3158 3158 3159
3128 3128 3127 3128 3127 3127 3125 3124 3123 3123 3123 3123 3124 3124 3120 3125 3124 3124 3124 3125 3127 3129 3129 3131 3133 3135 3135 3137 3138 3140 3142 3143 3144 3146 3148 3149 3150 3150 3150 3151 3152 3153 3154 3155 3155 3156 3156 3157 3158
3127 3127 3126 3126 3125 3126 3123 3122 3120 3121 3121 3122 3121 3122 3120 3122 3123 3122 3122 3123 3124 3126 3127 3129 3131 3133 3133 3134 3135 3138 3140 3142 3141 3142 3148 3146 3147 3145 3146 3148 3149 3151 3152 3152 3153 3153 3154 3155 3156
3126 3126 3126 3124 3123 3122 3121 3120 3119 3118 3118 3118 3118 3119 3120 3120 3120 3120 3120 3121 3123 3124 3125 3127 3128 3131 3132 3132 3133 3135 3137 3139 3139 3139 3141 3142 3143 3142 3141 3142 3146 3148 3149 3149 3150 3150 3151 3152 3153
3124 3124 3123 3123 3122 3121 3120 3119 3117 3116 3117 3118 3116 3115 3117 3118 3117 3117 3118 3120 3122 3123 3124 3126 3127 3128 3129 3130 3131 3133 3135 3137 3137 3138 3139 3140 3139 3141 3141 3142 3145 3146 3146 3146 3147 3147 3147 3148 3149
3122 3121 3120 3119 3119 3118 3117 3116 3116 3114 3114 3114 3114 3113 3114 3115 3115 3114 3116 3118 3119 3121 3122 3123 3124 3125 3126 3127 3128 3130 3131 3133 3135 3135 3136 3137 3137 3138 3139 3139 3140 3141 3142 3142 3142 3143 3143 3143 3145
3119 3119 3117 3117 3116 3115 3114 3114 3113 3112 3111 3109 3111 3110 3111 3110 3112 3113 3114 3115 3117 3118 3118 3119 3120 3122 3123 3124 3125 3126 3128 3130 3132 3132 3133 3134 3135 3135 3136 3137 3137 3138 3139 3138 3139 3139 3140 3140 3140
3115 3115 3115 3114 3113 3112 3112 3111 3109 3109 3108 3106 3107 3107 3107 3108 3108 3111 3112 3113 3115 3115 3116 3116 3117 3119 3120 3122 3123 3124 3126 3127 3129 3130 3132 3132 3133 3134 3134 3134 3135 3135 3135 3135 3135 3135 3135 3136 3137
3114 3112 3111 3111 3111 3109 3108 3109 3107 3106 3106 3104 3104 3103 3103 3105 3106 3107 3108 3111 3112 3113 3113 3114 3115 3117 3119 3120 3122 3123 3124 3126 3127 3129 3130 3131 3131 3132 3132 3132 3133 3132 3132 3132 3131 3131 3131 3132 3132
3112 3110 3108 3107 3108 3107 3107 3105 3105 3105 3104 3102 3101 3101 3101 3101 3104 3105 3106 3107 3110 3110 3111 3113 3114 3116 3118 3119 3121 3122 3123 3124 3125 3126 3127 3127 3128 3128 3129 3129 3128 3128 3128 3127 3127 3127 3126 3127 3126
3110 3108 3108 3108 3106 3104 3105 3103 3102 3103 3102 3101 3100 3099 3099 3100 3100 3103 3105 3106 3107 3108 3110 3112 3113 3114 3116 3118 3119 3120 3121 3122 3122 3123 3124 3124 3125 3125 3125 3125 3124 3124 3123 3122 3123 3122 3122 3121 3120
3110 3108 3107 3107 3105 3103 3101 3099 3100 3098 3099 3099 3098 3097 3096 3097 3098 3099 3102 3104 3105 3107 3108 3110 3112 3113 3114 3115 3116 3118 3119 3119 3120 3121 3121 3121 3121 3121 3121 3120 3120 3119 3117 3116 3116 3116 3115 3115 3114
3106 3106 3104 3102 3101 3099 3097 3095 3095 3096 3093 3095 3095 3095 3095 3094 3096 3097 3098 3101 3103 3105 3107 3109 3110 3111 3112 3114 3114 3115 3116 3116 3117 3117 3117 3117 3117 3117 3116 3116 3115 3113 3112 3111 3109 3108 3108 3107 3106
3104 3101 3099 3099 3098 3093 3091 3088 3088 3089 3088 3088 3091 3092 3091 3091 3091 3094 3095 3097 3100 3102 3104 3106 3107 3109 3110 3111 3112 3113 3113 3114 3114 3114 3115 3114 3114 3113 3112 3111 3109 3107 3106 3104 3102 3101 3100 3100 3099
3101 3100 3099 3099 3095 3091 3087 3079 3081 3081 3083 3082 3083 3087 3088 3086 3087 3090 3093 3094 3095 3099 3101 3103 3104 3106 3107 3107 3108 3110 3111 3110 3111 3111 3111 3111 3109 3108 3106 3105 3103 3101 3099 3097 3096 3094 3092 3092 3092
3097 3096 3095 3094 3092 3091 3088 3079 3075 3077 3078 3079 3079 3081 3084 3083 3082 3086 3088 3091 3093 3094 3097 3099 3101 3102 3104 3105 3105 3106 3107 3107 3107 3107 3107 3105 3105 3103 3101 3099 3097 3095 3093 3091 3089 3087 3085 3084 3084
3096 3094 3093 3091 3089 3086 3086 3085 3068 3072 3071 3074 3076 3076 3078 3079 3079 3082 3085 3086 3089 3091 3093 3095 3097 3099 3100 3101 3102 3102 3103 3103 3103 3102 3102 3101 3100 3098 3096 3094 3091 3088 3086 3084 3082 3080 3079 3077 3076
3092 3093 3091 3088 3088 3084 3076 3080 3070 3070 3071 3070 3071 3073 3075 3076 3075 3077 3080 3081 3084 3088 3089 3090 3093 3095 3096 3097 3098 3099 3099 3099 3099 3099 3098 3096 3094 3092 3090 3088 3085 3082 3079 3077 3075 3073 3072 3070 3068
3089 3091 3091 3090 3088 3082 3076 3076 3070 3067 3068 3070 3070 3071 3071 3074 3073 3071 3073 3077 3080 3084 3086 3087 3089 3091 3093 3094 3094 3095 3095 3096 3096 3094 3093 3091 3089 3086 3084 3082 3078 3075 3072 3069 3067 3066 3064 3063 3061
3085 3088 3090 3091 3084 3077 3076 3071 3068 3066 3066 3066 3065 3067 3069 3071 3070 3067 3068 3072 3077 3079 3081 3084 3086 3088 3089 3091 3091 3091 3092 3091 3091 3089 3088 3086 3083 3081 3078 3075 3072 3069 3065 3062 3060 3059 3057 3055 3054
3081 3082 3084 3083 3081 3078 3071 3068 3064 3062 3062 3063 3062 3063 3065 3067 3065 3064 3064 3066 3071 3074 3077 3081 3083 3084 3085 3086 3088 3087 3087 3087 3085 3084 3082 3079 3077 3074 3071 3068 3065 3061 3058 3056 3054 3052 3050 3049 3048
3076 3077 3080 3081 3081 3074 3061 3060 3059 3059 3059 3056 3058 3060 3060 3060 3061 3060 3060 3062 3066 3069 3073 3076 3079 3080 3082 3083 3084 3084 3083 3081 3080 3078 3075 3073 3070 3067 3064 3060 3057 3054 3051 3048 3046 3045 3043 3042 3040
3074 3072 3073 3074 3074 3073 3069 3062 3060 3058 3058 3057 3055 3056 3058 3057 3057 3057 3057 3059 3062 3066 3069 3073 3075 3077 3078 3079 3079 3078 3077 3076 3074 3071 3068 3066 3063 3060 3056 3053 3049 3046 3043 3040 3038 3037 3036 3034 3033
3070 3066 3068 3067 3066 3064 3066 3061 3061 3059 3058 3055 3055 3054 3055 3055 3055 3054 3054 3056 3060 3063 3067 3070 3071 3073 3074 3074 3074 3073 3072 3070 3067 3064 3061 3058 3055 3052 3049 3045 3042 3038 3035 3033 3032 3031 3028 3027 3026